Vorticity
5 5 5 5 4 4 4 4 3 3 3 3 3 3 3 2 2 3 2 2 2 2 2 3 3 3 3 3 3 3 3 3 3 2 2 2 2 3 3 2 2 2 1 1 1 1 0 1 1 2 2 2 2 2 2 2 2 3 3 3 4 4 5 6 6 7 7 8 8 8 8 8 8 7 6 5 5 5 5 5 5 5 5 5 5 5 5 5 5 6 6 6 6 7 7 7 7 7 7 7 7 7 7
3 3 3 3 3 3 2 2 2 2 2 2 2 2 2 2 2 2 2 2 2 2 1 1 2 2 2 3 3 3 3 2 2 2 2 2 2 3 3 2 2 1 1 1 1 1 1 0 1 1 1 1 1 1 1 1 1 2 2 2 2 3 3 4 4 5 5 6 7 7 8 8 8 8 8 7 6 5 5 4 4 4 4 4 4 4 4 4 4 4 5 5 5 5 6 6 6 6 6 6 6 6 6
2 2 1 1 2 2 2 2 1 1 1 1 1 1 1 1 1 2 2 2 2 2 1 1 1 2 2 2 2 2 2 2 2 2 2 2 2 2 2 2 2 2 2 2 2 2 1 1 1 1 1 1 1 1 1 0 1 1 1 1 2 2 2 2 3 3 3 3 4 5 6 7 7 8 8 9 8 7 7 6 5 5 5 4 4 4 4 4 4 4 3 4 4 4 5 5 5 5 5 5 5 5 5
1 1 1 1 0 1 1 1 1 1 2 1 1 1 1 1 1 2 2 3 2 2 2 2 2 1 1 1 1 1 2 2 2 2 2 2 2 2 2 2 2 1 1 2 2 2 2 2 2 2 2 1 1 1 1 0 0 1 1 1 1 1 2 2 2 2 2 2 2 2 3 4 5 6 7 8 8 8 8 8 7 7 6 5 5 5 4 4 4 4 4 3 4 4 4 4 4 4 5 5 5 5 5
1 1 1 1 0 -0 -1 1 1 1 2 1 1 1 1 1 2 2 2 3 2 2 2 2 2 1 1 1 1 1 2 2 2 2 2 2 2 2 2 2 2 2 1 1 1 2 2 2 2 2 2 2 2 1 1 1 1 1 1 1 1 1 1 2 2 2 2 2 2 2 2 2 2 3 4 5 6 7 7 8 8 8 7 7 7 6 6 6 6 5 5 5 5 4 4 4 4 4 4 5 5 5 5
1 1 1 1 1 0 -1 1 1 1 1 1 1 1 1 1 1 1 1 2 2 1 2 2 2 2 2 2 1 1 2 2 2 2 2 2 2 2 2 2 2 2 2 2 2 2 2 2 2 2 2 1 1 1 1 2 2 2 2 2 2 2 2 2 2 2 2 2 2 2 2 2 1 1 1 2 3 4 5 6 6 7 8 8 8 8 8 8 8 7 7 7 7 6 6 6 5 5 5 5 5 5 5
1 1 1 1 1 1 1 1 1 1 1 1 1 1 0 1 1 1 1 1 1 1 2 2 2 2 2 2 2 1 2 2 2 2 2 2 3 3 3 3 3 3 3 3 3 3 3 2 2 2 2 1 1 1 1 2 2 2 3 2 2 2 2 2 2 2 2 2 2 3 3 3 2 1 1 1 1 1 2 3 4 5 5 6 7 7 8 8 9 9 9 9 8 8 8 8 8 7 7 7 7 7 7
1 1 1 1 1 2 2 1 1 1 1 1 1 1 0 1 1 1 1 2 2 2 2 2 2 2 2 2 2 1 2 2 2 2 2 2 2 2 3 3 3 3 4 4 4 4 4 3 3 3 2 2 2 2 2 2 2 3 3 3 2 2 2 2 2 2 2 2 2 2 3 3 3 3 2 1 1 1 1 1 2 2 3 4 5 5 6 6 7 7 8 9 9 9 9 9 9 9 9 9 9 9 9
0 1 2 1 1 1 1 1 1 1 1 1 1 1 1 1 1 1 1 1 2 2 2 2 2 2 2 2 2 2 2 2 2 2 2 2 2 2 2 2 3 3 3 4 4 4 4 4 4 4 4 3 3 3 3 3 3 3 3 3 3 2 2 2 2 2 2 2 1 2 2 2 3 3 3 3 2 1 1 1 1 1 2 2 3 3 4 4 4 5 6 6 7 8 8 9 9 9 9 9 10 10 10
-0 0 1 2 2 1 1 1 1 1 1 1 1 1 1 1 1 1 1 1 2 2 2 2 2 2 2 2 2 2 2 2 2 2 2 2 2 2 2 2 2 2 3 3 3 4 4 4 5 5 5 5 4 4 4 4 4 3 3 3 3 3 3 3 2 2 2 2 1 1 1 2 2 3 3 3 3 3 2 2 1 1 1 1 2 2 2 3 3 3 3 4 4 5 6 6 7 7 8 8 9 9 9
-0 0 0 1 1 1 1 1 0 0 1 1 1 1 2 2 1 1 1 1 1 2 2 2 2 2 2 2 2 2 2 2 2 2 2 2 2 2 2 3 3 3 3 2 2 2 3 3 4 4 4 5 5 5 5 5 4 4 4 3 3 3 3 3 3 2 2 2 2 1 1 1 2 2 3 3 3 3 3 2 2 1 1 1 1 1 1 2 2 2 2 2 2 3 3 4 4 5 5 6 6 7 7
-0 -0 -0 0 0 1 0 0 -0 0 0 1 1 2 2 2 2 2 1 1 1 2 2 2 2 2 2 2 2 2 2 2 3 3 3 3 3 3 3 3 4 4 4 3 2 2 2 2 2 2 3 3 4 5 5 5 5 5 4 4 4 4 3 3 3 3 3 3 2 2 1 1 1 2 2 2 3 3 3 3 3 2 2 1 1 1 1 1 1 1 1 1 1 2 2 2 3 3 3 4 4 4 5
-0 -1 -0 -0 -0 -0 -0 -0 -0 -0 0 1 1 1 2 2 2 2 2 2 2 2 2 2 2 2 2 2 2 2 3 3 3 3 3 3 3 3 4 4 4 5 5 4 3 3 3 3 2 2 2 2 2 3 4 4 4 4 4 4 4 4 4 3 3 3 3 3 3 2 2 2 2 2 2 2 2 3 3 3 3 2 2 2 2 1 1 1 1 1 1 1 1 1 1 1 1 1 2 2 2 3 3
-0 -0 -0 -0 0 0 -0 -0 0 0 0 1 1 1 1 2 2 2 2 2 2 3 3 3 2 2 2 3 3 3 3 3 3 3 3 3 3 4 4 4 4 4 5 5 4 4 4 4 3 3 3 2 2 3 3 3 3 3 4 4 4 4 4 3 3 3 3 3 3 3 3 3 3 3 3 2 2 2 2 2 2 2 2 2 2 2 2 2 2 1 1 1 1 1 1 1 1 1 1 1 1 1 2
-0 -0 0 0 1 1 1 1 1 1 1 1 1 2 2 2 2 3 3 2 3 3 4 3 3 3 3 3 3 3 3 3 3 3 3 3 4 4 4 4 4 4 4 4 4 4 4 4 4 4 4 4 4 3 3 3 3 3 3 3 3 4 4 4 4 4 4 4 4 4 4 4 4 4 4 3 3 3 2 2 2 2 2 2 2 2 2 2 2 2 2 2 1 1 1 1 1 1 1 1 1 1 1
0 1 1 1 1 1 1 1 2 2 2 2 2 2 2 2 3 3 3 3 3 3 4 4 4 3 3 3 3 3 3 3 4 4 4 4 4 4 4 4 4 4 4 4 4 4 4 4 4 4 5 5 5 4 4 4 3 3 3 3 3 3 4 4 4 4 4 4 4 4 4 4 4 4 4 4 4 3 3 3 3 2 2 2 2 2 2 3 3 3 3 3 2 1 1 1 1 1 1 1 1 1 0
1 1 1 2 2 2 2 2 2 3 3 3 3 3 3 3 3 3 4 4 3 3 4 4 4 4 4 4 4 4 4 4 4 4 4 4 4 4 4 4 4 4 4 4 4 4 4 4 4 4 4 5 5 5 4 4 4 4 4 3 3 3 3 4 4 4 4 4 4 5 5 5 5 5 5 5 5 4 4 4 3 3 3 3 3 2 2 3 3 3 3 3 3 3 2 1 1 1 1 1 1 1 1
1 1 1 2 2 3 3 3 3 3 4 4 4 4 4 4 4 4 4 4 4 4 4 4 4 4 4 4 4 5 5 4 4 4 4 4 4 4 4 4 4 4 4 3 3 3 3 3 4 4 4 4 5 5 5 4 4 4 4 4 4 4 4 4 4 4 4 4 4 5 5 5 5 5 5 5 5 5 5 5 4 4 4 4 4 3 3 3 3 3 3 4 4 4 3 3 2 1 1 1 1 1 1
1 2 2 2 3 3 3 4 4 4 5 5 5 5 5 5 5 5 5 5 5 5 5 4 4 4 5 5 5 5 5 5 4 4 4 3 3 3 3 3 4 4 4 3 3 3 4 4 4 4 4 4 5 5 5 5 5 4 4 4 4 4 4 4 4 4 4 4 4 5 5 5 5 6 6 6 6 6 6 6 6 5 5 5 5 5 5 4 4 4 4 4 4 5 5 5 4 3 2 2 2 2 1
2 2 2 3 3 4 4 4 5 5 5 5 5 5 5 5 5 5 6 6 5 5 5 5 5 5 5 5 5 4 4 4 3 3 3 3 3 3 4 4 4 4 4 4 4 4 4 4 4 4 4 5 5 6 5 5 5 5 5 4 4 4 4 4 4 5 5 5 5 5 5 5 5 5 6 6 6 7 7 7 7 7 7 6 6 6 6 6 6 5 5 5 5 5 6 6 6 5 5 4 3 3 2
2 3 3 3 4 4 5 5 5 5 5 5 5 5 5 5 6 6 6 6 6 5 5 5 5 5 5 4 4 4 3 3 3 3 3 3 3 4 4 4 4 5 5 5 5 5 5 5 5 5 5 5 6 6 7 6 6 5 5 5 5 5 5 5 5 5 5 5 6 6 6 6 6 5 5 5 6 7 7 7 8 8 8 7 7 7 8 7 7 7 7 7 7 7 7 7 7 7 6 6 5 5 4
3 3 3 4 5 5 6 6 6 6 5 5 5 5 5 5 5 6 6 6 6 5 5 5 5 5 4 4 4 3 3 3 3 3 4 4 5 5 5 5 5 5 5 5 6 6 6 6 7 7 7 6 7 7 8 7 7 6 6 6 6 6 6 6 6 6 6 6 6 6 6 7 7 6 5 5 5 6 7 8 8 8 8 8 8 8 8 8 8 9 8 8 8 8 8 8 8 8 8 7 7 7 6
3 4 4 5 5 6 6 7 7 6 5 5 5 5 5 5 5 5 6 6 5 5 5 5 5 5 4 4 4 4 3 4 4 4 5 5 6 6 6 6 6 6 6 6 7 7 8 8 8 8 8 8 9 9 9 9 8 8 7 7 7 7 7 7 7 7 7 7 7 6 7 7 7 7 6 5 5 5 6 7 8 8 8 9 9 9 9 9 9 9 9 9 9 9 9 9 9 9 9 9 9 8 8
4 4 5 6 7 7 7 7 7 6 5 4 4 5 5 5 6 6 5 5 5 5 5 5 5 5 5 5 5 5 5 5 5 5 6 6 6 6 7 7 7 7 7 8 8 9 9 10 10 10 10 10 10 10 10 10 10 9 9 9 9 9 9 9 8 8 8 8 7 7 7 6 6 6 6 5 5 4 4 6 7 8 8 8 8 8 8 9 9 9 9 9 9 9 9 9 9 10 10 10 10 10 9
3 4 6 7 8 9 8 7 7 6 5 4 4 4 5 5 6 6 6 5 5 5 5 5 5 5 5 5 5 6 6 6 6 6 6 6 6 6 6 7 7 8 8 9 9 10 10 10 10 10 10 10 10 10 11 11 11 10 10 10 10 10 10 10 9 9 9 8 8 8 7 7 6 6 6 6 5 4 3 4 5 7 7 7 8 8 8 8 8 8 7 7 7 8 8 8 9 9 10 10 10 10 10
3 5 6 8 9 9 8 7 6 6 5 5 5 5 5 5 6 6 6 6 5 5 5 5 6 6 6 7 7 7 7 7 7 7 7 6 6 6 7 7 7 8 9 9 10 10 10 10 10 9 9 9 9 9 10 11 10 10 10 10 10 10 10 10 10 9 9 9 9 8 8 8 7 7 7 7 6 6 5 4 4 5 7 7 7 7 7 7 7 7 6 6 6 6 6 6 7 7 8 9 9 10 10
4 5 7 9 9 9 7 7 6 6 6 5 5 5 5 5 6 6 6 6 5 5 5 6 6 7 7 7 7 8 8 7 7 7 7 7 7 7 7 8 8 9 9 9 9 9 9 8 8 8 8 7 8 8 9 10 10 9 9 9 9 9 9 9 9 9 9 9 9 9 9 9 8 8 8 8 8 8 8 6 5 5 6 7 7 7 7 7 7 6 6 5 5 4 4 5 5 5 6 7 7 8 8
6 7 8 9 9 8 7 6 6 6 6 6 6 6 6 5 5 6 6 5 5 6 6 6 7 7 7 8 7 7 7 7 7 7 7 7 8 8 9 9 9 9 9 8 8 7 7 7 7 7 6 6 6 7 8 8 9 8 8 8 8 8 8 8 8 8 8 8 8 8 8 9 9 9 9 10 10 10 10 9 8 6 5 6 7 7 7 7 7 6 6 6 5 4 4 4 4 4 5 5 5 6 6
7 9 9 9 8 8 7 6 6 6 6 5 5 5 6 5 5 5 5 5 5 6 6 6 7 7 7 7 7 7 7 7 7 7 8 9 9 10 10 10 10 9 8 8 7 6 6 6 6 6 6 6 6 6 7 8 8 9 8 8 8 7 7 7 7 7 7 7 7 7 8 8 9 9 10 10 10 10 10 10 10 9 7 6 6 6 7 6 6 6 6 6 6 5 5 5 5 5 5 5 5 5 5
9 10 10 9 8 7 6 6 6 6 5 5 4 4 4 5 4 4 5 5 5 6 6 6 7 7 7 7 7 7 7 7 8 9 9 10 11 11 11 10 9 9 8 7 6 6 5 5 6 6 6 6 6 6 6 7 8 9 9 9 8 8 7 7 7 7 6 6 6 6 7 7 8 8 9 9 10 10 10 10 10 10 9 7 6 5 5 5 5 5 6 6 6 6 6 5 5 6 6 5 5 5 5
10 11 10 8 7 6 5 5 5 5 4 4 4 4 3 3 4 4 4 5 5 6 6 7 7 7 7 7 7 7 7 8 9 10 11 11 11 11 11 9 8 7 6 6 5 5 5 6 6 6 6 7 7 7 6 7 8 9 10 10 10 9 8 8 8 7 7 7 6 6 6 7 7 7 8 8 9 9 9 9 9 9 9 8 7 5 5 5 5 5 5 6 6 7 7 6 6 6 7 7 6 6 6
11 10 9 7 5 5 4 4 4 4 4 4 3 3 3 3 3 4 4 5 5 6 7 7 7 7 7 7 7 7 8 9 10 10 11 11 11 10 9 8 7 6 5 5 5 5 5 6 6 7 7 7 7 7 7 7 8 9 10 11 11 10 10 9 9 9 9 8 8 7 7 7 7 7 7 7 8 8 8 8 8 8 8 8 8 7 7 6 6 5 5 6 6 7 7 7 7 7 7 7 7 7 7
11 9 7 5 4 3 3 4 4 4 3 3 3 2 2 3 4 4 5 5 6 6 7 7 7 7 7 7 7 7 8 8 9 10 10 10 10 9 8 7 6 6 5 5 4 5 5 6 6 7 7 8 8 8 8 8 8 9 10 11 11 11 11 11 11 11 10 10 9 9 9 9 8 8 7 7 7 7 7 7 8 8 8 8 8 8 8 8 7 7 7 7 7 7 7 8 8 8 8 7 7 7 7
9 7 5 4 3 3 3 4 4 4 3 3 2 2 2 3 4 5 5 6 6 7 7 7 7 8 7 7 7 7 7 7 8 8 9 9 8 8 7 7 6 6 5 5 5 5 5 6 6 7 8 8 8 8 8 8 8 8 9 10 10 11 11 11 12 12 12 11 11 10 10 10 9 9 8 8 8 7 7 7 7 7 7 7 8 8 8 8 9 9 9 9 9 9 9 8 8 8 8 7 7 7 6
7 5 3 3 3 3 4 4 3 3 2 2 3 3 3 3 4 5 5 6 6 6 7 7 8 8 8 8 8 7 7 7 7 7 7 8 8 7 7 6 6 6 6 5 5 5 5 6 7 7 8 9 9 9 9 8 8 8 8 9 10 10 11 11 12 12 12 12 11 11 11 11 10 10 9 9 8 8 8 8 7 7 7 8 8 8 8 8 9 9 10 10 10 10 10 9 9 8 8 7 7 7 6
5 3 3 3 3 3 4 4 3 2 2 2 3 3 3 4 4 5 5 5 6 6 6 7 7 8 8 8 7 7 7 6 6 6 6 7 7 7 7 7 6 6 6 6 6 6 6 7 7 8 9 9 9 9 9 9 8 8 8 8 9 9 10 10 11 11 11 11 11 11 11 11 10 10 10 9 9 9 9 8 8 8 7 9 8 7 7 8 8 8 8 9 9 8 8 8 8 8 7 7 7 7 7
3 2 3 3 3 3 3 3 3 2 2 3 3 3 4 4 4 5 5 5 5 5 6 6 7 7 8 7 7 7 7 6 6 5 5 6 7 7 7 7 6 7 7 7 7 7 7 7 8 8 9 9 9 9 9 9 8 8 7 8 8 8 8 8 9 10 11 10 10 10 10 10 10 10 10 9 9 9 9 9 8 8 8 8 8 7 7 7 7 7 7 7 7 7 6 6 6 6 7 7 8 8 8
2 2 3 3 3 3 3 2 2 2 2 3 3 4 4 4 4 4 4 4 5 5 5 6 6 7 7 7 7 7 7 6 6 5 6 6 6 6 7 7 7 7 7 7 7 7 8 8 8 8 9 9 9 9 9 8 8 8 7 7 7 8 7 7 7 8 9 9 9 9 9 9 9 9 9 9 9 9 9 9 9 9 9 8 8 8 8 8 7 7 6 6 6 5 5 5 5 5 6 7 8 9 9
2 3 3 3 3 3 2 1 2 2 3 3 4 4 4 4 4 4 4 4 4 5 5 5 6 6 7 7 7 7 7 7 6 6 6 6 6 6 6 7 7 7 7 7 8 8 9 8 8 9 9 9 9 9 9 8 8 8 7 7 7 7 7 7 6 6 7 7 8 8 8 8 8 8 8 9 9 9 9 9 9 9 9 9 9 9 9 8 8 7 6 6 6 5 5 5 4 5 6 7 8 9 10
3 3 3 2 2 2 1 2 2 3 3 4 4 4 4 4 4 4 4 4 4 4 5 5 6 6 6 7 7 7 7 7 6 6 5 5 5 5 5 6 6 7 7 7 8 9 9 9 9 9 9 9 9 8 8 8 8 8 7 7 6 6 7 7 7 6 6 6 7 7 7 7 7 8 8 8 8 9 9 9 9 9 9 9 9 9 9 8 8 7 7 7 6 6 5 5 5 5 6 7 8 9 9
3 3 3 2 2 1 2 2 3 3 4 4 4 4 4 4 4 4 4 4 4 5 5 5 6 6 6 6 7 7 7 6 6 5 5 4 4 5 5 5 6 6 7 7 8 8 8 9 9 8 9 8 8 8 8 8 8 8 7 7 6 6 6 7 7 7 7 7 7 7 7 7 8 8 8 8 8 9 9 9 9 9 9 9 9 9 8 8 8 7 7 7 6 6 5 5 5 5 7 7 8 8 8
2 2 2 2 2 2 2 3 3 4 4 4 4 4 4 4 4 4 4 4 4 5 5 5 5 6 7 7 7 6 7 6 6 5 6 5 5 5 5 5 6 6 7 7 7 8 8 8 8 8 8 8 8 9 9 8 8 7 7 7 6 6 6 7 7 8 8 8 7 7 7 8 8 8 8 8 8 9 9 9 9 9 9 9 9 9 8 8 8 7 7 6 5 5 4 4 5 6 7 8 8 8 7
2 2 2 2 2 2 3 3 4 4 4 4 4 4 4 4 4 4 4 4 4 4 5 5 5 5 6 7 7 7 7 7 6 6 6 6 6 5 5 5 6 7 8 8 8 8 8 8 9 9 9 9 9 9 9 8 8 7 7 7 6 7 7 7 8 8 8 8 8 8 8 9 9 8 8 8 8 9 9 9 9 9 9 9 9 9 8 8 7 7 6 5 4 3 3 4 5 6 7 7 7 7 6
2 2 2 2 3 3 3 4 4 4 5 4 4 4 4 3 3 4 4 4 4 4 5 5 5 5 6 7 7 7 7 7 7 7 6 6 6 6 6 7 8 8 9 9 8 8 8 9 10 11 11 11 11 10 9 9 8 8 7 7 7 7 7 8 8 8 8 9 9 9 9 10 10 9 8 8 8 8 9 9 9 9 9 9 9 9 8 8 7 5 4 3 3 3 3 4 5 6 7 7 7 6 6
2 3 3 3 3 4 4 4 4 4 4 4 4 3 3 3 3 3 4 4 4 4 5 5 5 6 6 7 7 8 7 7 7 7 7 6 6 6 7 8 9 9 9 9 9 8 8 9 10 12 12 12 12 11 10 9 8 7 7 7 7 7 8 8 8 8 9 9 9 10 10 11 11 10 9 8 8 8 8 9 9 10 10 10 9 9 8 7 5 4 3 3 3 3 4 5 6 7 8 7 7 6 6
3 3 4 4 4 5 4 4 4 4 4 4 4 3 3 3 3 3 3 4 4 4 5 5 6 6 6 6 6 7 7 7 7 7 7 7 7 7 7 8 8 8 8 8 8 8 8 9 10 11 12 12 11 10 9 9 8 7 7 8 8 8 8 8 8 8 9 9 9 10 10 11 10 10 9 8 8 8 9 9 10 10 10 10 9 8 7 5 4 3 2 2 3 4 5 7 8 8 8 8 7 7 6
3 4 4 5 5 5 5 4 4 4 4 4 4 3 3 4 4 4 4 4 4 4 5 5 6 6 5 4 4 5 6 7 7 7 7 7 7 7 7 7 7 7 7 7 7 7 8 9 10 11 11 10 9 9 9 9 8 8 9 9 9 9 9 8 8 8 8 8 8 9 10 10 10 9 8 8 8 8 9 10 11 10 10 9 8 7 5 3 3 2 2 3 4 5 7 8 8 9 9 8 8 8 8
4 5 5 5 5 5 5 5 4 4 3 3 4 4 4 4 4 4 4 4 5 5 5 5 5 5 5 4 5 6 7 8 8 8 7 7 7 7 7 7 6 7 7 7 7 7 8 9 9 10 9 9 8 9 9 10 10 11 11 11 11 10 9 8 7 6 6 6 7 7 8 9 9 8 8 8 8 9 10 11 11 10 9 7 6 4 2 1 1 2 3 4 5 7 7 8 8 8 8 9 9 9 9
5 5 6 6 5 5 5 4 4 4 3 3 4 4 4 4 5 5 5 5 5 5 6 6 6 5 5 6 7 9 9 9 9 8 8 8 8 8 7 7 7 7 8 8 8 8 8 9 9 9 9 9 9 9 11 12 13 14 14 13 12 11 9 7 6 5 4 5 5 6 7 7 8 8 8 8 8 8 10 11 11 10 8 5 3 2 1 1 1 2 4 6 7 8 8 8 8 8 8 9 9 9 10
5 6 6 6 5 5 5 4 4 4 4 3 3 4 4 4 4 5 5 5 6 6 6 6 7 7 6 8 9 10 10 10 9 9 9 10 9 7 7 7 7 8 10 11 11 10 9 9 10 10 9 9 9 10 11 12 14 15 15 14 12 10 8 6 4 4 4 4 5 5 6 7 7 7 7 8 8 8 8 8 8 8 6 4 2 1 1 1 2 4 6 7 8 9 8 8 8 8 9 9 10 10 10
6 6 5 5 5 5 4 4 4 4 4 4 4 4 4 4 4 5 5 5 6 6 6 6 7 8 8 9 9 10 10 10 9 9 9 10 9 8 6 6 7 8 9 10 10 10 9 10 10 10 9 9 9 10 10 11 12 13 13 12 11 10 8 6 5 4 3 3 4 5 6 7 7 7 7 8 9 8 7 5 4 4 4 3 3 2 2 3 4 6 8 8 9 9 9 9 9 9 10 10 11 11 11
5 5 5 5 5 4 4 4 5 5 5 5 4 5 5 5 5 5 5 6 6 7 7 7 7 8 9 9 9 10 10 10 10 9 8 7 7 8 8 7 8 9 8 7 8 9 10 12 12 10 9 8 8 9 9 9 10 11 10 10 10 9 9 8 7 5 3 3 4 5 7 8 7 7 8 10 10 9 7 4 2 1 1 2 3 3 4 5 6 7 8 9 9 9 10 10 10 10 10 11 11 11 11
5 5 5 5 5 4 4 5 5 5 5 5 5 5 5 5 5 6 7 7 8 8 8 8 8 8 8 10 10 11 11 11 10 9 9 7 6 6 8 10 10 9 7 6 7 9 11 11 10 8 9 7 7 7 7 8 8 8 8 8 9 9 9 7 6 5 5 6 6 7 9 9 8 8 9 11 11 10 6 3 1 1 1 2 4 5 6 7 8 9 9 9 9 9 10 10 10 10 11 11 11 11 11
5 5 5 5 5 5 5 5 5 5 6 6 6 5 5 6 7 7 8 9 9 9 8 9 9 9 8 10 10 10 11 11 10 9 9 9 7 6 7 10 10 8 6 7 8 9 12 10 7 5 8 8 7 6 7 7 7 7 7 7 8 9 9 5 3 3 6 8 9 10 10 10 10 10 11 11 10 7 4 3 2 2 2 4 6 7 8 9 9 9 9 9 9 9 10 10 10 11 11 11 11 11 10
5 5 5 5 5 5 6 6 5 6 6 7 7 7 7 7 8 9 9 9 9 9 9 9 10 10 9 9 9 9 9 10 9 9 8 9 9 9 7 7 7 7 8 11 12 11 10 9 9 8 8 8 7 6 7 8 8 8 7 8 8 8 8 5 3 3 7 8 9 9 10 10 10 11 11 8 6 4 3 2 3 3 4 5 7 8 8 9 9 9 9 9 9 9 10 10 11 11 11 11 11 10 9
5 5 5 5 5 5 6 6 6 6 7 8 8 8 9 9 9 9 9 9 9 9 9 9 10 10 10 9 9 8 8 8 9 9 8 8 9 10 9 7 7 7 6 8 10 11 11 9 8 8 10 7 6 7 8 8 9 8 8 8 9 8 7 6 7 9 10 8 7 6 7 8 9 9 7 4 3 2 3 3 4 4 5 6 7 7 8 9 9 9 9 9 9 10 10 11 11 12 12 11 11 10 9
5 5 5 5 6 6 6 6 7 7 8 8 9 9 9 9 9 9 9 9 9 9 9 9 9 9 11 10 9 8 8 8 9 10 10 8 7 8 10 11 10 9 7 6 6 8 11 9 8 8 7 7 7 8 7 8 8 7 7 8 9 9 8 9 10 11 10 7 6 5 5 7 7 5 3 2 2 4 4 5 5 5 5 6 6 7 8 8 9 9 9 10 10 11 11 12 12 12 12 11 11 10 9
6 6 6 6 6 6 7 7 8 8 9 9 9 9 8 9 9 9 10 9 9 9 8 8 8 9 9 10 9 9 9 9 9 9 10 8 8 8 9 10 10 10 11 10 9 8 8 9 9 8 4 6 8 10 8 6 6 6 7 8 9 11 11 11 10 8 7 7 6 6 6 6 5 4 2 3 4 5 6 6 5 5 5 6 7 7 8 9 9 10 10 10 11 11 11 12 12 12 12 11 10 10 9
5 5 5 6 6 7 7 8 8 8 9 9 9 9 9 9 9 9 9 9 9 8 8 8 8 8 8 8 9 9 10 10 10 9 7 9 9 9 9 9 9 9 9 10 10 10 7 7 7 7 5 4 6 8 9 7 5 5 6 9 11 13 13 11 9 8 7 8 7 6 5 4 3 3 3 4 4 5 6 5 5 5 5 6 7 8 8 9 9 10 10 11 11 11 11 11 12 12 12 11 10 9 8
4 5 5 6 6 7 7 8 9 9 9 9 9 9 9 9 9 9 9 9 9 9 8 8 8 8 8 8 9 9 10 9 10 10 8 8 8 9 9 9 9 9 8 9 9 9 9 8 7 6 6 5 4 4 8 9 7 6 6 10 13 15 14 11 10 8 7 6 4 2 1 1 2 3 4 4 5 5 6 5 5 6 6 7 7 8 8 9 10 10 11 11 11 10 10 11 11 11 11 11 10 9 8
4 4 5 5 6 7 8 9 9 9 9 9 9 9 9 9 9 9 9 8 8 9 9 8 8 8 9 9 9 9 9 9 9 10 11 9 8 8 9 9 9 8 8 9 9 8 8 7 7 6 6 5 5 5 8 9 8 8 9 13 14 14 14 12 9 6 1 -1 -1 -1 -0 1 2 3 4 5 6 6 6 6 6 6 7 7 7 8 9 9 10 10 11 10 10 10 10 11 11 11 11 11 10 9 8
Height
3205 3205 3206 3206 3206 3206 3206 3207 3207 3207 3208 3208 3208 3208 3208 3208 3208 3209 3209 3209 3209 3209 3208 3208 3208 3208 3208 3208 3208 3208 3208 3207 3207 3207 3207 3207 3206 3206 3206 3206 3205 3205 3205 3205 3204 3204 3203 3203 3202 3202 3201 3201 3200 3200 3200 3199 3199 3199 3198 3198 3198 3197 3197 3196 3196 3195 3195 3195 3194 3193 3193 3193 3192 3192 3192 3191 3191 3190 3190 3190 3189 3189 3189 3188 3188 3187 3187 3186 3186 3186 3185 3185 3185 3184 3184 3184 3183 3183 3182 3182 3182 3181 3181
3206 3206 3207 3207 3207 3207 3207 3208 3208 3208 3208 3209 3209 3209 3209 3209 3209 3209 3209 3209 3209 3209 3209 3209 3209 3209 3209 3209 3209 3209 3208 3208 3208 3208 3208 3207 3207 3207 3207 3206 3206 3206 3205 3205 3205 3205 3204 3204 3203 3203 3202 3202 3201 3200 3200 3200 3199 3199 3199 3198 3198 3198 3197 3197 3196 3196 3195 3195 3195 3194 3193 3193 3193 3192 3192 3192 3191 3191 3190 3190 3190 3189 3189 3188 3188 3188 3187 3187 3186 3186 3185 3185 3185 3185 3184 3184 3183 3183 3182 3182 3182 3181 3181
3207 3207 3207 3208 3208 3208 3208 3208 3209 3209 3209 3209 3209 3210 3210 3210 3210 3210 3210 3210 3210 3210 3210 3210 3210 3210 3210 3210 3209 3209 3209 3209 3209 3209 3208 3208 3208 3208 3207 3207 3207 3206 3206 3206 3205 3205 3205 3204 3204 3203 3203 3202 3202 3201 3201 3200 3200 3199 3199 3199 3198 3198 3197 3197 3197 3196 3196 3195 3195 3195 3194 3194 3193 3193 3192 3192 3192 3191 3191 3190 3190 3190 3189 3189 3188 3188 3187 3187 3187 3186 3186 3185 3185 3185 3184 3184 3184 3183 3183 3182 3182 3181 3181
3208 3208 3208 3208 3209 3209 3209 3209 3209 3210 3210 3210 3210 3210 3210 3210 3210 3210 3210 3210 3210 3210 3210 3210 3210 3210 3210 3210 3210 3210 3210 3210 3209 3209 3209 3209 3208 3208 3208 3207 3207 3207 3206 3206 3206 3205 3205 3205 3204 3204 3203 3203 3203 3202 3202 3201 3200 3200 3200 3199 3199 3198 3198 3197 3197 3197 3196 3196 3195 3195 3195 3194 3194 3193 3193 3192 3192 3191 3191 3190 3190 3190 3189 3189 3188 3188 3188 3187 3187 3186 3186 3185 3185 3185 3184 3184 3184 3183 3183 3182 3182 3181 3181
3209 3209 3209 3209 3209 3209 3210 3210 3210 3210 3210 3210 3210 3211 3211 3211 3211 3211 3211 3211 3211 3211 3211 3211 3211 3211 3211 3210 3210 3210 3210 3210 3210 3210 3209 3209 3209 3209 3208 3208 3208 3207 3207 3206 3206 3206 3205 3205 3205 3204 3204 3203 3203 3203 3202 3202 3201 3200 3200 3200 3199 3199 3198 3198 3197 3197 3197 3196 3196 3195 3195 3195 3194 3194 3193 3193 3192 3192 3191 3191 3190 3190 3190 3189 3189 3188 3188 3187 3187 3187 3186 3186 3185 3185 3184 3184 3184 3183 3183 3182 3182 3181 3181
3209 3210 3210 3210 3210 3210 3210 3210 3210 3211 3211 3211 3211 3211 3211 3211 3212 3212 3212 3212 3212 3212 3211 3211 3211 3211 3211 3211 3211 3211 3210 3210 3210 3210 3210 3210 3209 3209 3209 3208 3208 3208 3207 3207 3206 3206 3206 3205 3205 3204 3204 3204 3203 3203 3203 3202 3202 3201 3200 3200 3200 3199 3199 3198 3198 3197 3197 3196 3196 3195 3195 3195 3194 3194 3194 3193 3193 3192 3192 3191 3191 3190 3190 3189 3189 3188 3188 3188 3187 3187 3186 3186 3185 3185 3185 3184 3184 3183 3183 3182 3182 3181 3181
3210 3210 3210 3210 3210 3211 3211 3211 3211 3211 3211 3212 3212 3212 3212 3212 3212 3212 3212 3212 3212 3212 3212 3212 3212 3212 3211 3211 3211 3211 3211 3210 3210 3210 3210 3210 3210 3209 3209 3209 3208 3208 3207 3207 3207 3206 3206 3205 3205 3205 3204 3204 3204 3203 3203 3202 3202 3201 3201 3200 3200 3199 3199 3198 3198 3198 3197 3197 3196 3196 3195 3195 3195 3194 3194 3193 3193 3192 3192 3191 3191 3190 3190 3190 3189 3189 3188 3188 3187 3187 3186 3186 3185 3185 3185 3184 3184 3183 3183 3182 3182 3181 3181
3211 3211 3211 3211 3211 3211 3211 3212 3212 3212 3212 3212 3212 3212 3212 3212 3212 3212 3212 3212 3212 3212 3212 3212 3212 3212 3212 3211 3211 3211 3211 3210 3210 3210 3210 3210 3210 3209 3209 3209 3208 3208 3208 3207 3207 3206 3206 3205 3205 3205 3204 3204 3204 3203 3203 3202 3202 3202 3201 3200 3200 3199 3199 3198 3198 3198 3197 3197 3196 3196 3195 3195 3195 3194 3194 3193 3193 3193 3192 3192 3191 3191 3190 3190 3189 3189 3188 3188 3187 3187 3186 3186 3185 3185 3185 3184 3184 3183 3183 3182 3182 3181 3181
3211 3211 3211 3212 3212 3212 3212 3212 3212 3212 3213 3213 3213 3213 3213 3213 3213 3213 3213 3213 3213 3212 3212 3212 3212 3212 3212 3211 3211 3211 3211 3210 3210 3210 3210 3210 3209 3209 3209 3209 3208 3208 3208 3207 3207 3206 3206 3205 3205 3205 3204 3204 3204 3203 3203 3202 3202 3202 3201 3201 3200 3199 3199 3198 3198 3198 3197 3197 3197 3196 3196 3195 3195 3194 3194 3193 3193 3193 3192 3192 3191 3191 3190 3190 3189 3189 3188 3188 3187 3187 3186 3186 3185 3185 3185 3184 3184 3183 3183 3182 3182 3181 3181
3212 3212 3212 3212 3212 3212 3213 3213 3213 3213 3213 3213 3213 3213 3213 3213 3213 3213 3213 3213 3212 3212 3212 3212 3212 3212 3211 3211 3211 3211 3210 3210 3210 3210 3210 3210 3209 3209 3209 3209 3208 3208 3207 3207 3207 3206 3206 3205 3205 3205 3204 3204 3204 3203 3203 3202 3202 3201 3201 3201 3200 3200 3199 3198 3198 3197 3197 3197 3196 3196 3196 3195 3195 3194 3194 3193 3193 3192 3192 3191 3191 3191 3190 3190 3190 3189 3188 3188 3187 3187 3186 3186 3185 3185 3185 3184 3184 3183 3183 3182 3182 3181 3181
3212 3213 3213 3213 3213 3213 3213 3213 3213 3213 3213 3213 3213 3213 3213 3213 3213 3213 3213 3212 3212 3212 3212 3212 3212 3211 3211 3211 3211 3210 3210 3210 3210 3210 3210 3209 3209 3209 3209 3208 3208 3208 3207 3207 3206 3206 3206 3205 3205 3204 3204 3204 3203 3203 3203 3202 3202 3201 3201 3200 3200 3200 3199 3198 3198 3197 3197 3197 3196 3196 3196 3195 3195 3194 3194 3193 3193 3192 3192 3191 3191 3190 3190 3190 3189 3189 3188 3188 3187 3187 3186 3186 3185 3185 3185 3184 3184 3183 3183 3182 3182 3181 3181
3213 3213 3213 3213 3213 3213 3214 3214 3214 3214 3214 3214 3214 3213 3213 3213 3213 3213 3212 3212 3212 3212 3212 3212 3211 3211 3211 3211 3211 3210 3210 3210 3210 3210 3209 3209 3209 3208 3208 3208 3208 3207 3207 3207 3206 3206 3205 3205 3205 3204 3204 3203 3203 3203 3202 3202 3201 3201 3200 3200 3200 3200 3199 3199 3198 3197 3196 3196 3196 3196 3195 3195 3195 3194 3194 3193 3193 3192 3192 3191 3191 3190 3190 3190 3189 3189 3188 3188 3187 3187 3186 3186 3185 3185 3185 3184 3184 3183 3183 3182 3182 3181 3181
3213 3213 3214 3214 3214 3214 3214 3214 3214 3214 3214 3214 3214 3214 3214 3213 3213 3213 3213 3212 3212 3212 3212 3211 3211 3211 3211 3211 3210 3210 3210 3210 3210 3209 3209 3209 3208 3208 3208 3207 3207 3207 3206 3206 3206 3205 3205 3205 3204 3204 3203 3203 3202 3202 3202 3201 3201 3200 3200 3200 3199 3199 3198 3198 3198 3197 3196 3196 3195 3195 3195 3195 3194 3194 3193 3193 3192 3192 3191 3191 3190 3190 3190 3189 3189 3188 3188 3188 3187 3187 3186 3186 3185 3185 3184 3184 3183 3183 3182 3182 3181 3181 3180
3214 3214 3214 3214 3214 3214 3214 3214 3214 3214 3214 3214 3214 3214 3214 3213 3213 3213 3213 3212 3212 3212 3212 3211 3211 3211 3211 3210 3210 3210 3210 3210 3209 3209 3209 3208 3208 3208 3207 3207 3207 3206 3206 3206 3205 3205 3205 3204 3204 3203 3203 3202 3202 3201 3201 3201 3200 3200 3200 3199 3199 3198 3198 3197 3197 3196 3196 3195 3195 3195 3194 3194 3194 3193 3193 3193 3192 3192 3191 3190 3190 3190 3189 3189 3188 3188 3188 3187 3187 3186 3186 3185 3185 3185 3184 3184 3183 3183 3182 3182 3181 3180 3180
3214 3214 3214 3214 3214 3214 3214 3214 3214 3214 3214 3214 3214 3214 3214 3213 3213 3213 3213 3212 3212 3212 3212 3212 3211 3211 3211 3210 3210 3210 3210 3209 3209 3209 3208 3208 3208 3207 3207 3206 3206 3206 3205 3205 3205 3204 3204 3203 3203 3203 3202 3202 3201 3201 3200 3200 3200 3199 3199 3198 3198 3197 3197 3197 3196 3196 3195 3195 3194 3194 3193 3193 3193 3192 3192 3192 3191 3191 3191 3190 3190 3189 3189 3188 3188 3187 3187 3187 3186 3186 3185 3185 3185 3184 3184 3183 3183 3182 3182 3181 3181 3180 3180
3214 3214 3214 3214 3214 3214 3214 3214 3214 3214 3214 3214 3214 3214 3213 3213 3213 3213 3213 3212 3212 3212 3212 3211 3211 3211 3210 3210 3210 3210 3209 3209 3209 3208 3208 3207 3207 3207 3206 3206 3205 3205 3205 3204 3204 3203 3203 3202 3202 3202 3201 3201 3201 3200 3200 3199 3199 3199 3198 3198 3197 3197 3196 3196 3195 3195 3194 3194 3193 3193 3192 3192 3192 3191 3191 3191 3191 3190 3190 3190 3189 3189 3188 3187 3187 3187 3186 3186 3186 3185 3185 3185 3184 3184 3183 3183 3182 3182 3181 3181 3180 3180 3179
3214 3214 3214 3214 3214 3214 3214 3214 3214 3214 3214 3213 3213 3213 3213 3213 3213 3213 3212 3212 3212 3211 3211 3211 3211 3211 3210 3210 3210 3209 3209 3209 3208 3208 3207 3207 3206 3206 3205 3205 3205 3204 3204 3203 3203 3202 3202 3201 3201 3200 3200 3200 3200 3200 3199 3199 3198 3198 3197 3197 3196 3196 3195 3195 3195 3194 3194 3193 3192 3192 3191 3191 3191 3190 3190 3190 3190 3190 3189 3189 3188 3188 3187 3187 3186 3186 3186 3185 3185 3185 3184 3184 3183 3183 3182 3182 3182 3181 3181 3180 3180 3180 3179
3213 3213 3214 3214 3214 3214 3214 3214 3213 3213 3213 3213 3213 3213 3213 3213 3212 3212 3212 3212 3211 3211 3211 3210 3210 3210 3210 3210 3209 3209 3209 3208 3207 3207 3206 3206 3206 3205 3205 3205 3204 3203 3203 3202 3202 3201 3201 3200 3200 3200 3199 3199 3199 3199 3198 3198 3197 3197 3196 3196 3195 3195 3195 3194 3194 3193 3193 3192 3192 3191 3191 3190 3190 3189 3189 3189 3188 3188 3188 3188 3188 3187 3187 3186 3185 3185 3185 3185 3184 3184 3184 3183 3183 3182 3182 3181 3181 3180 3180 3180 3180 3179 3178
3213 3213 3213 3213 3213 3213 3213 3213 3213 3213 3213 3213 3213 3212 3212 3212 3212 3212 3211 3211 3211 3210 3210 3210 3210 3210 3209 3209 3209 3209 3208 3208 3207 3206 3206 3205 3205 3205 3204 3204 3203 3202 3202 3201 3201 3200 3200 3200 3199 3198 3198 3198 3198 3198 3198 3197 3196 3195 3195 3195 3194 3194 3193 3193 3193 3192 3192 3191 3191 3190 3190 3190 3189 3189 3188 3187 3187 3187 3187 3187 3186 3186 3186 3185 3185 3185 3184 3184 3183 3183 3183 3182 3182 3181 3181 3180 3180 3180 3180 3179 3179 3178 3178
3213 3213 3213 3213 3213 3213 3213 3213 3213 3212 3212 3212 3212 3212 3212 3212 3211 3211 3211 3211 3210 3210 3210 3209 3209 3209 3208 3208 3208 3208 3207 3207 3207 3206 3206 3205 3205 3204 3203 3203 3202 3202 3201 3200 3200 3200 3199 3199 3198 3197 3197 3196 3196 3197 3197 3196 3195 3195 3194 3194 3193 3193 3192 3192 3191 3191 3190 3190 3190 3190 3189 3189 3189 3188 3187 3186 3186 3186 3185 3185 3185 3185 3185 3185 3184 3184 3183 3183 3182 3182 3182 3181 3181 3180 3180 3180 3179 3179 3179 3178 3178 3178 3177
3212 3212 3212 3212 3212 3212 3212 3212 3212 3212 3212 3212 3211 3211 3211 3211 3211 3210 3210 3210 3210 3209 3209 3209 3208 3208 3207 3207 3207 3206 3206 3206 3206 3205 3205 3205 3204 3203 3202 3202 3201 3201 3200 3200 3199 3199 3198 3197 3197 3196 3195 3195 3195 3195 3195 3195 3194 3194 3193 3192 3192 3191 3191 3190 3190 3190 3189 3189 3189 3188 3188 3188 3188 3187 3187 3186 3185 3185 3184 3184 3184 3184 3184 3184 3183 3183 3182 3182 3181 3181 3181 3180 3180 3180 3179 3179 3178 3178 3177 3177 3177 3177 3176
3212 3212 3212 3212 3212 3212 3211 3211 3211 3211 3211 3211 3211 3211 3210 3210 3210 3210 3210 3209 3209 3209 3208 3208 3208 3207 3207 3206 3206 3205 3205 3205 3204 3204 3204 3204 3203 3202 3202 3201 3200 3200 3199 3199 3198 3198 3197 3196 3196 3195 3195 3194 3193 3194 3194 3194 3193 3192 3192 3191 3191 3190 3190 3189 3189 3189 3188 3188 3187 3187 3187 3186 3186 3186 3186 3185 3185 3184 3183 3183 3183 3183 3183 3182 3182 3182 3181 3181 3180 3180 3180 3179 3179 3178 3178 3178 3177 3177 3176 3176 3176 3176 3175
3211 3211 3211 3211 3211 3211 3211 3211 3210 3210 3210 3210 3210 3210 3210 3210 3209 3209 3209 3209 3208 3208 3207 3207 3207 3206 3206 3205 3205 3205 3204 3204 3203 3203 3202 3202 3201 3201 3200 3200 3199 3199 3198 3197 3197 3196 3196 3195 3195 3194 3193 3193 3192 3192 3192 3192 3192 3191 3190 3190 3190 3189 3189 3188 3188 3187 3187 3186 3186 3186 3185 3185 3185 3185 3185 3185 3184 3183 3182 3182 3181 3181 3181 3181 3181 3180 3180 3180 3179 3179 3179 3178 3178 3177 3177 3176 3176 3176 3175 3175 3175 3175 3175
3211 3211 3211 3211 3211 3210 3210 3210 3210 3210 3210 3209 3209 3210 3210 3209 3209 3209 3208 3208 3208 3207 3207 3206 3206 3205 3205 3205 3204 3204 3203 3203 3202 3201 3201 3200 3200 3200 3199 3199 3198 3198 3197 3196 3196 3195 3195 3194 3194 3193 3192 3192 3191 3191 3191 3191 3190 3190 3190 3189 3188 3188 3187 3187 3186 3186 3186 3185 3185 3185 3184 3184 3184 3183 3183 3183 3183 3183 3182 3181 3180 3180 3180 3180 3180 3179 3179 3179 3178 3178 3177 3177 3177 3176 3176 3175 3175 3175 3174 3174 3174 3174 3173
3210 3210 3210 3210 3210 3210 3210 3210 3210 3210 3209 3209 3209 3208 3208 3208 3208 3208 3207 3207 3206 3206 3205 3205 3205 3204 3204 3203 3203 3202 3202 3201 3201 3200 3200 3199 3199 3198 3198 3197 3197 3196 3196 3195 3195 3194 3194 3193 3193 3192 3191 3191 3190 3190 3190 3190 3189 3189 3188 3188 3187 3187 3186 3186 3185 3185 3185 3184 3184 3183 3183 3183 3183 3182 3182 3182 3182 3182 3181 3180 3180 3179 3179 3179 3178 3178 3178 3177 3177 3177 3176 3176 3176 3175 3175 3175 3174 3174 3173 3173 3173 3172 3172
3210 3210 3210 3210 3210 3210 3209 3209 3209 3209 3209 3208 3208 3208 3207 3207 3207 3207 3206 3206 3205 3205 3204 3204 3204 3203 3203 3202 3202 3201 3201 3200 3200 3199 3199 3198 3198 3197 3197 3196 3195 3195 3195 3194 3194 3193 3192 3192 3191 3191 3190 3190 3189 3189 3189 3189 3188 3188 3187 3186 3186 3185 3185 3185 3184 3184 3183 3183 3182 3182 3182 3182 3181 3181 3181 3180 3180 3181 3181 3180 3179 3178 3177 3177 3177 3177 3176 3176 3176 3175 3175 3175 3175 3174 3174 3174 3173 3173 3172 3172 3171 3171 3171
3209 3209 3209 3209 3209 3209 3209 3208 3208 3208 3208 3208 3207 3207 3207 3206 3206 3206 3205 3205 3205 3204 3203 3203 3202 3202 3201 3201 3200 3200 3200 3199 3199 3198 3198 3197 3197 3196 3196 3195 3195 3194 3193 3193 3192 3192 3191 3191 3190 3190 3189 3188 3188 3188 3188 3188 3187 3186 3186 3185 3185 3185 3184 3183 3183 3182 3182 3182 3181 3181 3180 3180 3180 3180 3179 3179 3179 3179 3179 3179 3179 3178 3177 3176 3176 3175 3175 3175 3175 3174 3174 3174 3174 3173 3173 3172 3172 3172 3171 3171 3170 3170 3170
3208 3208 3208 3208 3208 3208 3208 3208 3207 3207 3207 3207 3206 3206 3206 3205 3205 3205 3205 3204 3204 3203 3203 3202 3201 3201 3200 3200 3200 3199 3199 3198 3198 3197 3197 3196 3196 3195 3195 3194 3194 3193 3192 3192 3191 3191 3190 3190 3189 3189 3188 3187 3186 3186 3186 3186 3186 3185 3185 3184 3184 3183 3183 3182 3182 3181 3181 3180 3180 3180 3179 3179 3179 3178 3178 3178 3177 3177 3178 3178 3178 3177 3176 3175 3175 3174 3174 3174 3173 3173 3172 3172 3172 3172 3172 3171 3171 3170 3170 3170 3169 3169 3169
3208 3207 3207 3207 3207 3207 3207 3207 3207 3206 3206 3206 3205 3205 3205 3205 3204 3204 3204 3203 3203 3202 3202 3201 3201 3200 3200 3199 3199 3198 3198 3197 3196 3196 3195 3195 3195 3194 3194 3193 3193 3192 3191 3191 3190 3190 3189 3188 3188 3187 3186 3186 3185 3184 3184 3184 3185 3184 3184 3183 3183 3182 3182 3181 3180 3180 3180 3179 3179 3178 3178 3178 3177 3177 3177 3176 3176 3176 3176 3176 3176 3176 3175 3175 3174 3173 3173 3172 3172 3171 3171 3171 3170 3170 3170 3170 3170 3170 3169 3169 3168 3168 3167
3207 3207 3206 3206 3206 3206 3206 3206 3206 3206 3205 3205 3205 3205 3204 3204 3204 3203 3203 3202 3202 3201 3201 3200 3200 3199 3199 3198 3198 3197 3197 3196 3195 3195 3195 3194 3194 3193 3193 3192 3192 3191 3190 3190 3190 3189 3188 3187 3187 3186 3185 3185 3184 3183 3182 3182 3183 3183 3182 3182 3181 3181 3180 3180 3180 3179 3179 3178 3178 3177 3177 3176 3176 3176 3175 3175 3175 3175 3174 3174 3175 3175 3175 3174 3173 3172 3172 3171 3171 3170 3170 3170 3169 3169 3169 3169 3169 3168 3168 3167 3167 3166 3166
3206 3206 3205 3205 3205 3205 3205 3205 3205 3205 3205 3205 3204 3204 3204 3203 3203 3202 3202 3201 3201 3200 3200 3200 3199 3198 3198 3197 3197 3196 3196 3195 3195 3194 3194 3193 3193 3192 3191 3191 3190 3190 3190 3189 3189 3188 3187 3186 3186 3185 3184 3184 3183 3182 3181 3180 3181 3181 3181 3181 3180 3180 3179 3179 3178 3178 3177 3177 3177 3176 3176 3175 3175 3175 3174 3174 3174 3173 3173 3173 3173 3173 3173 3173 3172 3172 3171 3170 3170 3170 3169 3169 3168 3168 3167 3167 3167 3167 3167 3166 3166 3165 3165
3205 3205 3205 3205 3205 3205 3205 3205 3204 3204 3204 3204 3203 3203 3203 3202 3202 3201 3201 3200 3200 3199 3199 3198 3198 3197 3197 3196 3196 3195 3195 3194 3194 3193 3193 3192 3192 3191 3190 3190 3189 3189 3188 3188 3187 3187 3186 3185 3185 3184 3183 3183 3182 3181 3180 3180 3179 3179 3180 3179 3179 3178 3178 3177 3177 3177 3176 3176 3175 3175 3175 3175 3174 3174 3173 3173 3172 3172 3171 3171 3171 3171 3171 3171 3171 3170 3170 3170 3169 3169 3168 3168 3167 3167 3166 3166 3165 3165 3165 3165 3165 3164 3164
3204 3204 3204 3204 3204 3204 3204 3203 3203 3203 3203 3203 3202 3202 3202 3201 3201 3200 3200 3199 3199 3198 3198 3197 3197 3196 3196 3195 3195 3194 3194 3193 3193 3192 3192 3191 3190 3190 3189 3189 3188 3187 3187 3186 3186 3185 3185 3184 3184 3183 3182 3182 3181 3180 3180 3179 3178 3178 3178 3178 3178 3177 3176 3176 3175 3175 3175 3175 3174 3174 3174 3173 3173 3173 3172 3171 3171 3170 3170 3170 3170 3169 3169 3170 3169 3169 3169 3169 3168 3168 3167 3167 3167 3166 3165 3165 3165 3164 3164 3164 3163 3163 3163
3203 3203 3203 3203 3203 3203 3203 3202 3202 3202 3202 3202 3201 3201 3200 3200 3200 3199 3199 3198 3198 3197 3197 3196 3196 3195 3195 3194 3194 3193 3193 3192 3192 3191 3191 3190 3190 3189 3188 3188 3187 3186 3186 3185 3185 3184 3183 3183 3182 3182 3181 3180 3180 3179 3178 3178 3177 3176 3176 3176 3176 3176 3175 3175 3174 3174 3174 3174 3173 3173 3172 3172 3172 3171 3171 3170 3170 3170 3169 3169 3168 3168 3168 3168 3168 3167 3167 3167 3167 3166 3166 3165 3165 3165 3165 3164 3164 3163 3163 3162 3162 3162 3161
3202 3202 3202 3202 3202 3202 3201 3201 3201 3201 3201 3201 3200 3200 3200 3199 3199 3198 3198 3197 3197 3196 3195 3195 3195 3194 3194 3193 3192 3192 3191 3191 3190 3190 3190 3189 3189 3188 3187 3187 3186 3185 3185 3184 3183 3183 3182 3181 3181 3180 3180 3179 3179 3178 3177 3177 3176 3175 3175 3175 3175 3175 3174 3174 3173 3173 3172 3172 3172 3171 3171 3171 3170 3170 3170 3169 3169 3168 3168 3168 3167 3167 3166 3166 3166 3166 3165 3165 3165 3165 3164 3164 3164 3163 3163 3163 3163 3162 3162 3161 3161 3161 3160
3201 3201 3201 3201 3201 3201 3200 3200 3200 3200 3200 3200 3199 3199 3198 3198 3197 3197 3196 3196 3195 3195 3195 3194 3194 3193 3193 3192 3191 3191 3190 3190 3190 3189 3189 3188 3188 3187 3186 3186 3185 3185 3184 3183 3182 3181 3181 3180 3180 3179 3179 3178 3177 3177 3176 3175 3175 3174 3173 3173 3173 3173 3173 3173 3172 3171 3171 3171 3170 3170 3170 3170 3169 3169 3169 3168 3168 3167 3167 3166 3166 3165 3165 3165 3165 3164 3164 3163 3163 3163 3162 3162 3162 3161 3161 3161 3161 3161 3161 3160 3160 3159 3159
3200 3200 3200 3200 3200 3200 3200 3200 3199 3199 3199 3199 3198 3198 3197 3197 3196 3196 3195 3195 3194 3194 3193 3193 3192 3192 3191 3191 3190 3190 3189 3189 3188 3188 3188 3187 3186 3186 3185 3185 3185 3184 3183 3182 3181 3180 3180 3179 3179 3178 3177 3177 3176 3175 3175 3175 3174 3173 3172 3172 3172 3172 3172 3172 3171 3170 3170 3169 3169 3169 3169 3168 3168 3168 3167 3167 3166 3166 3165 3165 3165 3165 3164 3164 3163 3163 3162 3162 3161 3161 3161 3160 3160 3160 3160 3159 3159 3159 3159 3159 3158 3158 3157
3199 3199 3199 3199 3199 3199 3199 3198 3198 3198 3198 3197 3197 3197 3196 3195 3195 3195 3194 3194 3193 3193 3192 3191 3191 3191 3190 3190 3190 3189 3188 3188 3187 3187 3186 3186 3185 3185 3184 3184 3183 3183 3182 3181 3180 3180 3179 3178 3178 3177 3176 3176 3175 3175 3174 3173 3173 3172 3171 3171 3170 3170 3170 3171 3170 3170 3169 3168 3168 3167 3167 3167 3167 3166 3166 3165 3165 3165 3165 3164 3164 3163 3163 3163 3162 3162 3161 3160 3160 3160 3159 3159 3159 3158 3158 3157 3157 3157 3157 3157 3156 3156 3156
3198 3198 3198 3198 3198 3198 3197 3197 3197 3197 3196 3196 3196 3195 3195 3195 3194 3194 3193 3193 3192 3191 3191 3190 3190 3189 3189 3189 3188 3188 3187 3186 3186 3185 3185 3184 3184 3183 3182 3182 3181 3181 3181 3180 3180 3179 3178 3177 3176 3176 3175 3175 3174 3173 3173 3172 3172 3171 3170 3170 3169 3169 3169 3169 3169 3169 3168 3167 3167 3166 3166 3165 3165 3165 3165 3164 3164 3164 3163 3163 3163 3162 3162 3162 3161 3161 3160 3160 3159 3159 3158 3158 3157 3156 3156 3155 3155 3155 3155 3155 3154 3154 3154
3197 3197 3197 3197 3196 3196 3196 3196 3196 3196 3195 3195 3195 3194 3194 3193 3193 3192 3192 3191 3191 3190 3190 3189 3189 3188 3187 3187 3186 3186 3185 3185 3185 3184 3183 3183 3182 3182 3181 3180 3180 3180 3180 3179 3179 3178 3177 3176 3175 3175 3174 3174 3173 3172 3172 3171 3170 3170 3170 3169 3168 3167 3167 3167 3167 3167 3167 3166 3166 3165 3165 3164 3164 3163 3163 3163 3163 3162 3162 3162 3161 3161 3161 3160 3160 3160 3159 3159 3158 3158 3157 3156 3156 3155 3155 3154 3153 3153 3152 3152 3152 3152 3152
3196 3196 3196 3196 3195 3195 3195 3195 3195 3195 3194 3194 3193 3193 3192 3192 3192 3191 3191 3190 3190 3189 3188 3188 3187 3187 3186 3185 3185 3184 3184 3183 3183 3182 3182 3181 3180 3180 3180 3179 3179 3178 3178 3178 3177 3177 3176 3175 3174 3174 3173 3172 3172 3171 3171 3170 3170 3169 3169 3168 3167 3167 3166 3165 3165 3165 3165 3165 3165 3165 3164 3163 3163 3162 3162 3161 3161 3161 3161 3160 3160 3160 3160 3159 3159 3159 3158 3158 3157 3157 3156 3155 3155 3154 3154 3153 3152 3151 3150 3150 3150 3150 3149
3195 3195 3195 3195 3194 3194 3194 3193 3193 3193 3193 3192 3192 3192 3191 3191 3190 3190 3189 3189 3188 3188 3187 3186 3186 3185 3185 3184 3184 3183 3182 3182 3181 3180 3180 3179 3179 3179 3178 3178 3177 3177 3176 3176 3176 3176 3175 3175 3174 3173 3172 3171 3171 3170 3170 3169 3169 3168 3168 3167 3166 3166 3165 3165 3164 3164 3163 3163 3163 3163 3163 3162 3162 3161 3160 3160 3160 3160 3160 3159 3159 3159 3158 3158 3158 3157 3157 3157 3156 3156 3155 3155 3154 3153 3153 3152 3151 3150 3149 3148 3148 3147 3147
3194 3194 3193 3193 3193 3193 3192 3192 3192 3192 3191 3191 3191 3190 3190 3189 3189 3188 3188 3187 3187 3186 3185 3185 3184 3184 3183 3183 3182 3182 3181 3180 3180 3179 3178 3177 3177 3177 3176 3176 3175 3175 3174 3174 3174 3174 3174 3174 3173 3172 3171 3170 3170 3169 3169 3168 3168 3167 3166 3166 3165 3165 3165 3164 3163 3163 3162 3162 3161 3161 3161 3161 3160 3160 3160 3160 3159 3158 3158 3158 3158 3157 3157 3157 3156 3156 3156 3155 3155 3155 3154 3154 3153 3152 3152 3151 3150 3149 3148 3147 3146 3145 3145
3192 3192 3192 3192 3192 3191 3191 3190 3190 3190 3190 3190 3189 3189 3188 3188 3187 3187 3186 3186 3185 3185 3184 3183 3182 3182 3182 3181 3181 3181 3180 3180 3179 3178 3177 3176 3175 3175 3174 3174 3174 3173 3173 3172 3172 3172 3172 3172 3172 3171 3170 3169 3169 3168 3168 3167 3167 3166 3165 3165 3164 3164 3164 3163 3162 3162 3161 3161 3160 3160 3160 3159 3159 3159 3160 3159 3158 3157 3157 3156 3156 3156 3156 3155 3155 3155 3155 3154 3154 3154 3153 3152 3152 3151 3150 3150 3149 3148 3147 3146 3145 3144 3143
3191 3191 3191 3191 3190 3190 3190 3189 3189 3189 3188 3188 3188 3187 3187 3186 3186 3185 3185 3184 3184 3183 3183 3182 3181 3180 3180 3180 3180 3179 3179 3178 3178 3177 3176 3175 3174 3174 3173 3173 3172 3172 3171 3170 3170 3170 3170 3170 3170 3170 3169 3168 3168 3167 3166 3166 3165 3165 3164 3164 3163 3163 3163 3162 3161 3161 3160 3160 3159 3159 3158 3158 3158 3158 3158 3158 3157 3156 3155 3155 3155 3155 3155 3154 3154 3154 3153 3153 3153 3152 3152 3151 3150 3150 3150 3149 3148 3147 3146 3145 3144 3143 3142
3190 3190 3190 3190 3189 3189 3188 3188 3187 3187 3187 3187 3186 3186 3185 3185 3184 3184 3183 3183 3182 3181 3181 3180 3180 3179 3179 3178 3178 3178 3177 3177 3176 3175 3175 3174 3173 3173 3172 3171 3171 3170 3170 3169 3169 3168 3168 3168 3168 3168 3168 3167 3166 3166 3165 3165 3164 3164 3163 3162 3162 3162 3161 3161 3160 3160 3159 3159 3158 3158 3157 3157 3156 3156 3156 3156 3156 3155 3155 3154 3154 3154 3153 3153 3153 3152 3152 3152 3151 3151 3150 3150 3149 3149 3148 3147 3147 3146 3145 3144 3143 3142 3141
3189 3189 3188 3188 3188 3187 3187 3186 3186 3185 3185 3185 3185 3185 3185 3184 3183 3183 3182 3181 3180 3180 3179 3179 3178 3177 3177 3176 3176 3176 3175 3175 3175 3174 3173 3172 3172 3171 3171 3170 3170 3170 3169 3169 3168 3167 3167 3166 3166 3166 3166 3165 3165 3165 3164 3164 3163 3162 3162 3161 3161 3160 3160 3160 3159 3159 3158 3158 3157 3157 3156 3156 3155 3155 3155 3155 3155 3154 3154 3154 3153 3153 3152 3152 3151 3151 3151 3150 3150 3149 3149 3148 3148 3147 3147 3146 3145 3145 3144 3143 3142 3141 3140
3188 3187 3187 3187 3186 3186 3185 3185 3184 3184 3184 3184 3184 3184 3183 3183 3182 3182 3181 3180 3180 3179 3178 3177 3176 3175 3175 3175 3175 3174 3174 3173 3173 3172 3171 3171 3170 3170 3169 3169 3168 3168 3168 3167 3167 3166 3165 3165 3165 3164 3164 3163 3163 3163 3163 3162 3162 3161 3160 3160 3159 3159 3159 3159 3158 3158 3157 3157 3156 3156 3155 3155 3154 3154 3154 3153 3153 3153 3153 3153 3152 3152 3151 3151 3150 3150 3150 3149 3149 3148 3147 3147 3146 3145 3145 3144 3144 3143 3142 3141 3140 3140 3139
3186 3186 3186 3185 3185 3185 3184 3183 3183 3182 3181 3181 3182 3182 3182 3181 3181 3180 3180 3179 3178 3178 3177 3176 3175 3174 3174 3174 3174 3173 3173 3172 3171 3170 3169 3169 3169 3168 3168 3167 3167 3166 3166 3165 3165 3165 3164 3164 3163 3162 3161 3161 3161 3161 3161 3161 3160 3160 3159 3158 3158 3158 3157 3157 3157 3156 3156 3155 3155 3155 3154 3154 3153 3153 3152 3152 3152 3151 3151 3151 3151 3151 3150 3150 3150 3149 3148 3148 3147 3146 3146 3145 3145 3144 3143 3143 3142 3141 3141 3140 3139 3138 3137
3185 3185 3185 3184 3184 3183 3183 3182 3181 3181 3180 3179 3179 3179 3179 3179 3179 3178 3178 3177 3177 3176 3175 3175 3174 3173 3173 3173 3173 3172 3172 3171 3170 3168 3167 3167 3167 3166 3166 3165 3165 3165 3164 3163 3163 3162 3162 3162 3161 3160 3160 3159 3159 3159 3159 3159 3159 3158 3158 3157 3156 3156 3156 3156 3155 3155 3155 3154 3154 3154 3153 3153 3152 3152 3151 3151 3150 3150 3150 3150 3150 3150 3149 3149 3149 3148 3147 3146 3146 3145 3145 3144 3143 3143 3142 3141 3140 3140 3139 3138 3138 3137 3136
3183 3183 3183 3183 3182 3182 3182 3181 3180 3180 3179 3178 3177 3177 3177 3177 3176 3176 3176 3175 3175 3174 3174 3173 3172 3171 3171 3171 3171 3171 3171 3170 3169 3168 3166 3165 3165 3165 3164 3164 3164 3164 3164 3163 3162 3161 3160 3160 3160 3159 3158 3157 3157 3157 3157 3157 3157 3156 3156 3155 3155 3155 3154 3154 3154 3154 3153 3153 3153 3152 3152 3151 3151 3150 3150 3150 3150 3149 3149 3148 3148 3148 3148 3148 3147 3147 3146 3145 3144 3144 3143 3142 3141 3141 3140 3140 3139 3138 3137 3137 3136 3135 3134
3182 3181 3181 3181 3181 3180 3180 3180 3179 3179 3178 3177 3176 3175 3175 3175 3174 3174 3174 3173 3173 3172 3171 3170 3170 3169 3169 3169 3169 3169 3169 3169 3168 3167 3165 3165 3164 3163 3163 3162 3162 3162 3162 3162 3161 3161 3160 3159 3158 3157 3156 3155 3155 3155 3155 3155 3155 3155 3154 3154 3153 3153 3152 3152 3152 3152 3152 3151 3151 3151 3150 3150 3149 3149 3149 3149 3148 3148 3147 3147 3146 3146 3145 3145 3145 3145 3144 3144 3143 3142 3141 3141 3140 3139 3139 3138 3137 3136 3136 3135 3135 3134 3133
3180 3180 3180 3180 3179 3179 3178 3178 3177 3177 3176 3176 3175 3174 3174 3173 3173 3172 3172 3171 3171 3170 3169 3168 3168 3168 3167 3166 3166 3166 3166 3167 3166 3165 3164 3164 3163 3162 3162 3161 3160 3160 3160 3160 3160 3160 3160 3159 3156 3155 3154 3154 3154 3154 3154 3154 3154 3153 3153 3152 3151 3151 3150 3150 3150 3150 3150 3150 3150 3150 3149 3148 3148 3148 3147 3147 3147 3146 3146 3145 3145 3144 3144 3143 3143 3143 3142 3142 3141 3141 3140 3139 3138 3138 3137 3136 3135 3135 3134 3134 3133 3132 3131
3179 3179 3178 3178 3177 3177 3176 3176 3175 3175 3175 3174 3173 3173 3172 3172 3171 3171 3170 3170 3169 3168 3167 3166 3166 3166 3165 3165 3165 3165 3164 3164 3164 3163 3162 3162 3161 3161 3160 3160 3160 3159 3158 3158 3158 3158 3158 3158 3156 3154 3153 3152 3152 3152 3153 3153 3152 3152 3151 3150 3150 3149 3149 3149 3149 3148 3148 3148 3148 3148 3148 3147 3146 3146 3146 3146 3145 3145 3145 3144 3143 3142 3142 3141 3141 3141 3140 3140 3140 3139 3138 3137 3137 3136 3135 3135 3134 3134 3133 3132 3131 3131 3130
3178 3177 3177 3176 3176 3175 3175 3175 3174 3174 3173 3172 3172 3171 3170 3170 3170 3169 3169 3168 3167 3167 3166 3165 3165 3164 3164 3164 3164 3163 3163 3163 3162 3161 3160 3160 3160 3160 3160 3159 3158 3158 3156 3156 3156 3156 3156 3156 3155 3153 3151 3151 3150 3150 3151 3151 3151 3150 3150 3149 3148 3148 3148 3148 3147 3146 3146 3146 3146 3146 3146 3145 3145 3145 3145 3144 3144 3143 3143 3142 3141 3141 3140 3140 3140 3139 3139 3138 3138 3137 3137 3136 3135 3135 3134 3133 3133 3132 3131 3131 3130 3129 3129
3176 3176 3175 3175 3175 3174 3174 3173 3173 3172 3171 3171 3170 3169 3169 3168 3168 3167 3167 3166 3166 3165 3164 3163 3163 3162 3162 3162 3162 3162 3162 3161 3161 3160 3159 3158 3158 3158 3158 3158 3157 3157 3156 3155 3155 3155 3155 3155 3154 3152 3150 3150 3150 3149 3149 3150 3150 3149 3149 3148 3147 3147 3146 3145 3145 3145 3144 3144 3145 3145 3144 3144 3144 3143 3143 3143 3142 3142 3141 3140 3140 3139 3138 3138 3138 3137 3137 3136 3136 3136 3135 3134 3134 3133 3132 3132 3131 3131 3130 3130 3129 3128 3127
3174 3174 3173 3173 3173 3172 3172 3171 3171 3170 3170 3169 3168 3168 3167 3166 3166 3165 3165 3165 3164 3164 3163 3162 3161 3160 3160 3160 3160 3160 3160 3160 3160 3159 3158 3157 3156 3156 3156 3156 3156 3155 3155 3154 3154 3154 3154 3154 3153 3152 3150 3149 3149 3148 3148 3148 3148 3148 3147 3146 3146 3145 3145 3144 3143 3143 3143 3143 3143 3143 3143 3142 3142 3142 3141 3141 3141 3140 3140 3139 3138 3137 3137 3136 3136 3136 3135 3135 3134 3134 3133 3133 3132 3131 3131 3130 3130 3129 3129 3128 3127 3126 3126
3172 3171 3171 3171 3170 3170 3170 3169 3169 3168 3168 3167 3166 3166 3165 3165 3164 3163 3163 3162 3162 3162 3161 3160 3160 3159 3158 3158 3158 3158 3158 3158 3158 3157 3157 3155 3155 3155 3155 3154 3154 3153 3153 3153 3153 3153 3153 3152 3152 3151 3150 3149 3148 3147 3147 3146 3146 3146 3146 3145 3145 3144 3143 3143 3142 3142 3142 3142 3142 3142 3141 3141 3140 3140 3140 3139 3139 3138 3138 3137 3136 3135 3135 3135 3134 3134 3134 3133 3133 3132 3131 3131 3130 3130 3130 3129 3129 3128 3127 3126 3126 3125 3125
3170 3170 3170 3169 3169 3168 3168 3167 3167 3166 3166 3165 3165 3164 3163 3163 3162 3161 3161 3160 3160 3160 3159 3159 3158 3158 3157 3156 3156 3155 3155 3156 3156 3156 3155 3154 3153 3153 3153 3153 3152 3152 3151 3151 3151 3151 3151 3151 3150 3150 3150 3148 3147 3146 3146 3146 3145 3145 3144 3144 3144 3143 3142 3141 3141 3141 3141 3141 3141 3140 3140 3140 3139 3139 3138 3137 3137 3137 3136 3135 3135 3134 3133 3133 3132 3132 3132 3131 3131 3130 3129 3129 3128 3128 3128 3127 3127 3126 3125 3125 3124 3124 3123
3169 3168 3168 3168 3167 3167 3166 3166 3165 3165 3164 3163 3163 3162 3161 3161 3160 3160 3159 3158 3158 3157 3157 3157 3156 3156 3155 3155 3154 3154 3154 3154 3154 3154 3153 3152 3152 3151 3152 3151 3151 3150 3150 3150 3150 3150 3150 3149 3149 3148 3148 3147 3146 3145 3145 3145 3144 3144 3143 3143 3142 3142 3141 3140 3140 3139 3139 3140 3139 3139 3139 3139 3138 3137 3137 3136 3135 3135 3134 3134 3133 3132 3131 3131 3130 3130 3130 3130 3129 3128 3128 3127 3126 3126 3126 3125 3125 3124 3124 3123 3123 3122 3121
3167 3167 3166 3166 3166 3165 3165 3164 3163 3163 3162 3161 3161 3160 3160 3159 3158 3158 3157 3156 3156 3155 3155 3154 3154 3154 3153 3153 3153 3152 3152 3152 3152 3152 3151 3151 3150 3150 3150 3150 3149 3149 3149 3149 3149 3149 3148 3147 3147 3146 3146 3145 3145 3144 3143 3143 3142 3142 3142 3142 3141 3140 3140 3139 3138 3138 3138 3138 3138 3138 3138 3137 3137 3136 3135 3135 3134 3133 3133 3132 3131 3130 3130 3129 3129 3128 3128 3127 3127 3126 3126 3125 3125 3125 3124 3123 3123 3122 3122 3122 3121 3120 3120